San Jose, CA

7:33 AM PST on November 23, 2017 (GMT -0800)
San Jose International

Weather History for KSJC - May, 2013

Change the Weather History Date:

Sunday, May 26, 2013

  Actual Average Record
Temperature  
Mean Temperature 64 °F 65 °F  
Max Temperature 72 °F 76 °F 95 °F (1951)
Min Temperature 55 °F 54 °F 40 °F (1897)
Degree Days  
Heating Degree Days 1 2  
Month to date heating degree days 70 88  
Since 1 July heating degree days 2049 2225  
Cooling Degree Days 0 2  
Month to date cooling degree days 39 36  
Year to date cooling degree days 64 53  
Growing Degree Days 13 (Base 50)    
Moisture  
Dew Point 51 °F    
Average Humidity 65    
Maximum Humidity 86    
Minimum Humidity 44    
Precipitation  
Precipitation 0.00 in 0.01 in 0.40 in (1946)
Month to date precipitation 0.01 0.45  
Year to date precipitation 2.20 10.35  
Since 1 July precipitation 9.39  
Sea Level Pressure  
Sea Level Pressure 30.12 in    
Wind  
Wind Speed 10 mph (NW)    
Max Wind Speed 20 mph    
Max Gust Speed 24 mph    
Visibility 10 miles    
Events      
T = Trace of Precipitation, MM = Missing Value Source: NWS Daily Summary

Daily Weather History Graph

Daily Weather History Graph

Search for Another Location

Airport or City:

Trip Planner

Search our weather history database for the weather conditions in past years. The results will help you decide how hot, cold, wet, or windy it might be!

Date:

Astronomy

May. 26, 2013 Rise Set
Actual Time 5:51 AM PDT 8:18 PM PDT
Civil Twilight 5:21 AM PDT 8:49 PM PDT
Nautical Twilight 4:43 AM PDT 9:26 PM PDT
Astronomical Twilight 4:02 AM PDT 10:07 PM PDT
Moon 10:12 PM PDT (5/26) 7:25 AM PDT (5/26)
Length of Visible Light 15h 27m
Length of Day
14h 27m
Waning Gibbous, 96% of the Moon is Illuminated
May 26
Waning Gibbous
May 31
Last Quarter
Jun 8
New
Jun 16
First Quarter
Jun 23
Full

Hourly Weather History & Observations

Time (PDT) Temp. Dew Point Humidity Pressure Visibility Wind Dir Wind Speed Gust Speed Precip Events Conditions
12:53 AM 55.9 °F 48.0 °F 75% 30.10 in 10.0 mi NNW 8.1 mph - N/A   Mostly Cloudy
1:53 AM 55.9 °F 48.0 °F 75% 30.10 in 10.0 mi WNW 13.8 mph - N/A   Overcast
2:53 AM 55.9 °F 50.0 °F 80% 30.09 in 10.0 mi NNW 4.6 mph - N/A   Overcast
3:53 AM 55.9 °F 52.0 °F 87% 30.09 in 10.0 mi WNW 5.8 mph - N/A   Overcast
4:53 AM 55.9 °F 51.1 °F 84% 30.09 in 10.0 mi West 4.6 mph - N/A   Overcast
5:53 AM 57.0 °F 50.0 °F 77% 30.09 in 10.0 mi WNW 9.2 mph - N/A   Overcast
6:53 AM 55.9 °F 50.0 °F 80% 30.11 in 10.0 mi WNW 11.5 mph - N/A   Overcast
7:53 AM 57.0 °F 51.1 °F 81% 30.12 in 10.0 mi WNW 11.5 mph - N/A   Overcast
8:53 AM 59.0 °F 50.0 °F 72% 30.13 in 10.0 mi NW 9.2 mph - N/A   Scattered Clouds
9:42 AM 60.8 °F 51.8 °F 72% 30.14 in 10.0 mi North 8.1 mph - N/A   Mostly Cloudy
9:53 AM 61.0 °F 51.1 °F 70% 30.14 in 10.0 mi North 8.1 mph - N/A   Overcast
10:21 AM 60.8 °F 51.8 °F 72% 30.14 in 10.0 mi NNW 11.5 mph - N/A   Mostly Cloudy
10:53 AM 63.0 °F 50.0 °F 63% 30.14 in 10.0 mi NNW 10.4 mph - N/A   Partly Cloudy
11:53 AM 66.9 °F 50.0 °F 54% 30.13 in 10.0 mi NW 8.1 mph - N/A   Clear
12:53 PM 68.0 °F 51.1 °F 55% 30.12 in 10.0 mi WNW 9.2 mph - N/A   Clear
1:53 PM 69.1 °F 51.1 °F 53% 30.11 in 10.0 mi NW 15.0 mph - N/A   Clear
2:53 PM 70.0 °F 50.0 °F 49% 30.10 in 10.0 mi NW 11.5 mph - N/A   Clear
3:53 PM 71.1 °F 50.0 °F 47% 30.09 in 10.0 mi NW 11.5 mph 21.9 mph N/A   Clear
4:53 PM 71.1 °F 48.9 °F 45% 30.09 in 10.0 mi NNW 13.8 mph - N/A   Clear
5:53 PM 68.0 °F 50.0 °F 52% 30.09 in 10.0 mi NW 15.0 mph - N/A   Clear
6:53 PM 64.0 °F 51.1 °F 63% 30.09 in 10.0 mi NNW 13.8 mph - N/A   Clear
7:53 PM 62.1 °F 51.1 °F 67% 30.11 in 10.0 mi NW 16.1 mph - N/A   Clear
8:53 PM 59.0 °F 51.1 °F 75% 30.13 in 10.0 mi NNW 11.5 mph - N/A   Clear
9:53 PM 57.0 °F 51.1 °F 81% 30.15 in 10.0 mi NNW 12.7 mph - N/A   Clear
10:53 PM 57.0 °F 51.1 °F 81% 30.16 in 10.0 mi NW 11.5 mph - N/A   Partly Cloudy
11:13 PM 57.2 °F 51.8 °F 82% 30.16 in 10.0 mi NNW 10.4 mph - N/A   Mostly Cloudy
11:53 PM 57.0 °F 51.1 °F 81% 30.16 in 10.0 mi NW 9.2 mph - N/A   Overcast